Regional Weather Roundup
Issued by NWS Bismarck, ND

Home | Current Version | Previous Version | Text Only | Print | Product List | Glossary On
Versions: 1 2 3 4 5 6 7 8 9 10 11 12 13 14 15 16 17 18 19 20 21 22 23 24 25 26 27 28 29 30 31 32 33 34 35 36 37 38 39 40 41 42 43 44 45 46 47 48 49 50
000
ASUS43 KBIS 170420
RWRBIS

NWR BROADCAST TEXT
NATIONAL WEATHER SERVICE BISMARCK ND
1100 PM CDT WED APR 16 2014

NOTE: "FAIR" INDICATES FEW OR NO CLOUDS BELOW 12,000 FEET WITH NO
SIGNIFICANT WEATHER AND/OR OBSTRUCTIONS TO VISIBILITY.


CITY           SKY/WX    TMP DP  RH WIND       PRES   REMARKS
WILLISTON        N/A    N/A N/A N/A MISG      30.27S
MINOT          CLOUDY    26  15  63 NE9       30.28S WCI  17
MINOT AFB      MOCLDY    25  15  66 E7        30.29R WCI  17
BISMARCK       CLOUDY    30  15  53 NE8       30.26R
DICKINSON      CLOUDY    27  20  75 E8        30.19S WCI  19
GARRISON         N/A     30  17  58 NE9       30.26R
HETTINGER ARPT MOCLDY    26  21  81 E6        30.20R WCI  19
JAMESTOWN      CLEAR     27  16  63 N9        30.24R WCI  18
CARRINGTON     FAIR      27  19  74 NE10      30.28R WCI  17
CROSBY         CLOUDY    25  23  93 E6        30.29S WCI  18
HARVEY         FAIR      25  18  74 NE13      30.29R WCI  13
HAZEN          CLOUDY    30  16  55 E5        30.26S
LINTON         FAIR      23  18  80 E8        30.24R WCI  14
MANDAN         CLOUDY    32  12  43 E14       30.25R
OAKES          FAIR      25  19  80 N10       30.22R WCI  15
RUGBY          FAIR      23  16  74 NE10      30.31S WCI  12
STANLEY        CLOUDY    27  25  93 NE5       30.25S
TIOGA          CLOUDY    25  25 100 E7        30.28S WCI  17
WATFORD CITY   CLOUDY    27  23  86 E5        30.24S
$$

CITY           SKY/WX    TMP DP  RH WIND       PRES   REMARKS
GRAND FORKS    CLEAR     28  21  75 N10       30.25R WCI  19
GRAND FORKS AF CLEAR     27  19  73 N14       30.30R WCI  15
DEVILS LAKE    CLEAR     25  12  58 NE12      30.30R WCI  14
FARGO          CLEAR     31  19  61 N14       30.22R
CANDO          FAIR      23  12  63 NE9       30.32S WCI  13
CAVALIER       FAIR      27  16  63 N8        30.34S WCI  18
GRAFTON        FAIR      27  16  63 N13G21    30.32R WCI  16
GWINNER        CLEAR     28  23  80 N9        30.22R WCI  20
LANGDON        FAIR      23  14  68 NE10      30.30S WCI  12
ROLLA          FAIR      23  12  63 NE9       30.32S WCI  13
WALHALLA       FAIR      25  16  68 NW8       30.36R WCI  16
$$

CITY           SKY/WX    TMP DP  RH WIND       PRES   REMARKS
ABERDEEN       CLEAR     23  19  85 N8        30.21R WCI  14
MOBRIDGE       MOCLDY    26  18  71 NE7       30.20R WCI  18
BUFFALO          N/A     30  23  75 E13       30.11R WCI  20
RAPID CITY     CLOUDY    31  24  75 SE3       30.18R
GLASGOW        PTCLDY    28  19  69 E14       30.19R WCI  17
SIDNEY         CLOUDY    28  19  69 SE9       30.26R WCI  20
WOLF POINT     CLOUDY    30  19  63 E10       30.24R
GLENDIVE       CLOUDY    28  21  74 E13       30.20S WCI  18
MILES CITY     CLOUDY    34  24  67 NE10      30.13R
BAKER          CLOUDY    30  23  75 SE16      30.16R WCI  19
$$

CITY           SKY/WX    TMP DP  RH WIND       PRES   REMARKS
BILLINGS       MOCLDY    38  32  79 NE6       30.06R
GREAT FALLS    CLEAR     35  32  88 SE9       29.97S
REGINA         FLURRIES  27  21  80 SE9       30.28F WCI  17
ESTEVAN        PTCLDY    23  18  80 E7        30.30R WCI  15
$$




USA.gov is the U.S. government's official web portal to all federal, state and local government web resources and services.